{"data":{"norad_id":65805,"epoch":"2026-09-20T11:56:16.607616Z","epoch_age_seconds":106386,"freshness":"FRESH","line1":"1 65805U 25218Q   26263.49741444  .00020983  00000+0  65015-3 0  9999","line2":"2 65805  97.2847 120.8766 0001705  91.2386 268.9052 15.33460642 54336","mean_motion":15.33460642,"eccentricity":0.0001705,"inclination_deg":97.2847,"raan_deg":120.8766,"arg_perigee_deg":91.2386,"mean_anomaly_deg":268.9052,"bstar":0.00065015,"rev_number":5433,"period_min":93.905246770592,"perigee_km":464.329795752,"apogee_km":466.66347482164,"semimajor_km":6843.6336352868,"source":"CELESTRAK","updated_at":"2026-09-21T09:00:35.716288Z"}}